| time (UTC) | temp F | wind direction | speed MPH | gust MPH | rain 1hr in | rain 24hr in | rain mn in | humidity % | barometer mb |
| 20260502164029 | 52 | 311 | 2.0 | 7.0 | 0.01 | 0.05 | 0.05 | 42 | 1019.3 |
| 20260502163130 | 51 | 344 | 1.0 | 5.0 | 0.01 | 0.05 | 0.05 | 43 | 1019.3 |
| 20260502162230 | 50 | 289 | 2.0 | 7.0 | 0.00 | 0.04 | 0.04 | 42 | 1019.4 |
| 20260502161330 | 51 | 298 | 2.0 | 5.0 | 0.00 | 0.04 | 0.04 | 42 | 1019.5 |
| 20260502160430 | 51 | 292 | 2.0 | 4.0 | 0.00 | 0.04 | 0.04 | 44 | 1019.6 |
| 20260502151930 | 49 | 198 | 1.0 | 5.0 | 0.02 | 0.04 | 0.04 | 46 | 1019.8 |
| 20260502151029 | 49 | 318 | 2.0 | 5.0 | 0.02 | 0.04 | 0.04 | 47 | 1019.7 |
| 20260502150129 | 48 | 323 | 2.0 | 6.0 | 0.02 | 0.04 | 0.04 | 48 | 1019.7 |
| 20260502130431 | 38 | 353 | 0.0 | 1.0 | 0.00 | 0.00 | 0.00 | 53 | 1019.6 |
| 20260502121930 | 33 | 325 | 0.0 | 2.0 | 0.00 | 0.00 | 0.00 | 49 | 1019.4 |
| 20260502121029 | 32 | 0 | 0.0 | 0.0 | 0.00 | 0.00 | 0.00 | 52 | 1019.4 |
| 20260502120129 | 31 | 0 | 0.0 | 0.0 | 0.00 | 0.00 | 0.00 | 53 | 1019.2 |
| 20260502115229 | 31 | 0 | 0.0 | 0.0 | 0.00 | 0.00 | 0.00 | 54 | 1019.2 |
| 20260502114329 | 31 | 0 | 0.0 | 0.0 | 0.00 | 0.00 | 0.00 | 55 | 1019.1 |
| 20260502113429 | 31 | 0 | 0.0 | 0.0 | 0.00 | 0.00 | 0.00 | 55 | 1018.9 |
| 20260502112529 | 30 | 0 | 0.0 | 0.0 | 0.00 | 0.00 | 0.00 | 56 | 1019.0 |
| 20260502111629 | 30 | 0 | 0.0 | 0.0 | 0.00 | 0.00 | 0.00 | 56 | 1018.9 |
| 20260502110729 | 30 | 0 | 0.0 | 0.0 | 0.00 | 0.00 | 0.00 | 56 | 1018.8 |
| 20260502104545 | 31 | 0 | 0.0 | 0.0 | 0.00 | 0.00 | 0.00 | 57 | 1018.7 |
| 20260502103645 | 31 | 0 | 0.0 | 0.0 | 0.00 | 0.00 | 0.00 | 57 | 1018.7 |
| 20260502102745 | 31 | 0 | 0.0 | 0.0 | 0.00 | 0.00 | 0.00 | 58 | 1018.7 |
| 20260502101845 | 31 | 0 | 0.0 | 0.0 | 0.00 | 0.00 | 0.00 | 58 | 1018.7 |
| 20260502100945 | 31 | 0 | 0.0 | 0.0 | 0.00 | 0.00 | 0.00 | 58 | 1018.7 |
| 20260502070044 | 32 | 0 | 0.0 | 0.0 | 0.00 | 0.00 | 0.00 | 67 | 1018.7 |
| 20260502065145 | 32 | 0 | 0.0 | 0.0 | 0.00 | 0.00 | 0.00 | 67 | 1018.9 |
| 20260502064245 | 32 | 0 | 0.0 | 0.0 | 0.00 | 0.00 | 0.00 | 68 | 1018.8 |
| 20260502063345 | 32 | 0 | 0.0 | 0.0 | 0.00 | 0.00 | 0.00 | 68 | 1018.9 |
| 20260502061545 | 32 | 0 | 0.0 | 0.0 | 0.00 | 0.00 | 0.00 | 69 | 1019.1 |
| 20260502060645 | 32 | 0 | 0.0 | 0.0 | 0.00 | 0.00 | 0.00 | 70 | 1019.1 |
| 20260502054845 | 33 | 0 | 0.0 | 0.0 | 0.00 | 0.00 | 0.00 | 71 | 1019.2 |
| 20260502053945 | 33 | 0 | 0.0 | 0.0 | 0.00 | 0.00 | 0.00 | 72 | 1019.2 |
| 20260502053044 | 33 | 0 | 0.0 | 0.0 | 0.00 | 0.00 | 0.00 | 72 | 1019.1 |
| 20260502052145 | 34 | 0 | 0.0 | 0.0 | 0.00 | 0.00 | 0.00 | 72 | 1019.2 |
| 20260502051245 | 34 | 0 | 0.0 | 0.0 | 0.00 | 0.00 | 0.00 | 73 | 1019.1 |
| 20260502050345 | 34 | 0 | 0.0 | 0.0 | 0.00 | 0.00 | 0.00 | 73 | 1019.2 |
| 20260502045445 | 34 | 0 | 0.0 | 0.0 | 0.00 | 0.00 | 0.00 | 74 | 1019.2 |
| 20260502044545 | 34 | 0 | 0.0 | 0.0 | 0.00 | 0.00 | 0.00 | 74 | 1019.2 |
| 20260502043645 | 34 | 0 | 0.0 | 0.0 | 0.00 | 0.00 | 0.00 | 75 | 1019.1 |
| 20260502042745 | 35 | 0 | 0.0 | 0.0 | 0.00 | 0.00 | 0.00 | 75 | 1019.1 |
| 20260502041845 | 35 | 0 | 0.0 | 0.0 | 0.00 | 0.00 | 0.00 | 75 | 1019.0 |
| 20260502040044 | 36 | 0 | 0.0 | 0.0 | 0.00 | 0.00 | 0.00 | 75 | 1019.1 |
| 20260502035145 | 36 | 0 | 0.0 | 0.0 | 0.00 | 0.00 | 0.00 | 75 | 1019.0 |
| 20260502034244 | 36 | 0 | 0.0 | 0.0 | 0.00 | 0.00 | 0.00 | 75 | 1018.9 |
| 20260502033345 | 37 | 0 | 0.0 | 0.0 | 0.00 | 0.00 | 0.00 | 75 | 1018.8 |
| 20260502032445 | 37 | 0 | 0.0 | 0.0 | 0.00 | 0.00 | 0.00 | 74 | 1018.9 |
| 20260502031544 | 37 | 0 | 0.0 | 0.0 | 0.00 | 0.00 | 0.00 | 74 | 1018.8 |
| 20260502030645 | 38 | 0 | 0.0 | 0.0 | 0.00 | 0.00 | 0.00 | 74 | 1018.9 |
| 20260502025745 | 38 | 0 | 0.0 | 0.0 | 0.00 | 0.00 | 0.00 | 74 | 1018.9 |
| 20260502024844 | 38 | 278 | 0.0 | 1.0 | 0.00 | 0.00 | 0.00 | 73 | 1018.7 |
| 20260502023944 | 38 | 278 | 0.0 | 1.0 | 0.00 | 0.00 | 0.00 | 73 | 1018.7 |
| 20260502023044 | 38 | 277 | 0.0 | 1.0 | 0.00 | 0.00 | 0.00 | 73 | 1018.6 |
| 20260502022144 | 39 | 275 | 0.0 | 1.0 | 0.00 | 0.00 | 0.00 | 73 | 1018.5 |
| 20260502021244 | 39 | 288 | 0.0 | 2.0 | 0.00 | 0.00 | 0.00 | 72 | 1018.4 |
| 20260502020344 | 39 | 330 | 0.0 | 2.0 | 0.00 | 0.00 | 0.00 | 72 | 1018.3 |
| 20260502015445 | 39 | 309 | 0.0 | 2.0 | 0.00 | 0.00 | 0.00 | 71 | 1018.2 |
| 20260502014544 | 40 | 284 | 0.0 | 1.0 | 0.00 | 0.00 | 0.00 | 71 | 1018.1 |
| 20260502013644 | 40 | 284 | 0.0 | 1.0 | 0.00 | 0.00 | 0.00 | 71 | 1017.9 |
| 20260502012744 | 40 | 282 | 0.0 | 2.0 | 0.00 | 0.00 | 0.00 | 71 | 1017.7 |
| 20260502011845 | 41 | 294 | 0.0 | 2.0 | 0.00 | 0.00 | 0.00 | 71 | 1017.5 |
| 20260502010944 | 41 | 305 | 0.0 | 2.0 | 0.00 | 0.01 | 0.00 | 71 | 1017.5 |
| 20260502004244 | 43 | 269 | 0.0 | 3.0 | 0.00 | 0.01 | 0.00 | 71 | 1017.3 |
| 20260502003344 | 44 | 261 | 0.0 | 1.0 | 0.00 | 0.01 | 0.00 | 71 | 1017.2 |
| 20260502002444 | 44 | 258 | 0.0 | 2.0 | 0.00 | 0.01 | 0.00 | 71 | 1017.0 |
| 20260502000644 | 45 | 222 | 0.0 | 2.0 | 0.00 | 0.01 | 0.00 | 70 | 1016.9 |
| 20260501235744 | 45 | 151 | 0.0 | 1.0 | 0.00 | 0.01 | 0.00 | 70 | 1016.9 |
| 20260501234844 | 46 | 160 | 1.0 | 3.0 | 0.00 | 0.01 | 0.00 | 69 | 1016.8 |
| 20260501233944 | 46 | 223 | 0.0 | 2.0 | 0.00 | 0.01 | 0.00 | 69 | 1016.8 |
| 20260501233044 | 47 | 163 | 1.0 | 3.0 | 0.00 | 0.01 | 0.00 | 68 | 1016.8 |
| 20260501231244 | 47 | 170 | 0.0 | 2.0 | 0.00 | 0.01 | 0.00 | 69 | 1016.9 |
| 20260501230344 | 47 | 173 | 0.0 | 2.0 | 0.00 | 0.01 | 0.00 | 70 | 1016.9 |
| 20260501224544 | 47 | 253 | 0.0 | 1.0 | 0.00 | 0.01 | 0.00 | 69 | 1016.9 |
| 20260501222744 | 47 | 224 | 0.0 | 2.0 | 0.00 | 0.01 | 0.00 | 68 | 1016.9 |
| 20260501221844 | 47 | 270 | 0.0 | 2.0 | 0.00 | 0.01 | 0.00 | 68 | 1016.8 |
| 20260501220944 | 47 | 244 | 0.0 | 2.0 | 0.00 | 0.01 | 0.00 | 67 | 1016.8 |
| 20260501220044 | 47 | 203 | 0.0 | 1.0 | 0.00 | 0.01 | 0.00 | 67 | 1016.8 |
| 20260501215144 | 47 | 163 | 0.0 | 2.0 | 0.00 | 0.01 | 0.00 | 67 | 1016.8 |
| 20260501214244 | 47 | 135 | 0.0 | 2.0 | 0.00 | 0.01 | 0.00 | 66 | 1016.8 |
| 20260501213344 | 47 | 118 | 1.0 | 2.0 | 0.00 | 0.01 | 0.00 | 67 | 1016.7 |
| 20260501211544 | 47 | 131 | 1.0 | 3.0 | 0.00 | 0.01 | 0.00 | 66 | 1016.6 |
| 20260501210644 | 47 | 170 | 0.0 | 3.0 | 0.00 | 0.01 | 0.00 | 66 | 1016.6 |
| 20260501205744 | 48 | 174 | 0.0 | 2.0 | 0.00 | 0.01 | 0.00 | 65 | 1016.7 |
| 20260501204844 | 48 | 179 | 0.0 | 3.0 | 0.00 | 0.01 | 0.00 | 65 | 1016.6 |
| 20260501203944 | 48 | 257 | 0.0 | 3.0 | 0.00 | 0.01 | 0.00 | 64 | 1016.6 |
| 20260501203043 | 49 | 169 | 0.0 | 2.0 | 0.00 | 0.01 | 0.00 | 65 | 1016.7 |
| 20260501201244 | 49 | 169 | 1.0 | 2.0 | 0.00 | 0.01 | 0.00 | 63 | 1016.6 |
| 20260501200344 | 49 | 197 | 1.0 | 2.0 | 0.00 | 0.01 | 0.00 | 60 | 1016.6 |
| 20260501195444 | 50 | 335 | 0.0 | 3.0 | 0.00 | 0.01 | 0.00 | 55 | 1016.7 |
| 20260501194543 | 50 | 321 | 1.0 | 2.0 | 0.00 | 0.01 | 0.00 | 52 | 1016.6 |
| 20260501193644 | 50 | 343 | 1.0 | 2.0 | 0.00 | 0.01 | 0.00 | 53 | 1016.4 |
| 20260501192744 | 50 | 341 | 1.0 | 3.0 | 0.00 | 0.01 | 0.00 | 51 | 1016.4 |
| 20260501191844 | 50 | 338 | 1.0 | 7.0 | 0.00 | 0.01 | 0.00 | 50 | 1016.4 |
| 20260501190944 | 50 | 293 | 1.0 | 3.0 | 0.00 | 0.01 | 0.00 | 52 | 1016.4 |
| 20260501190044 | 51 | 316 | 1.0 | 6.0 | 0.00 | 0.01 | 0.00 | 51 | 1016.3 |
| 20260501185144 | 51 | 357 | 1.0 | 4.0 | 0.00 | 0.01 | 0.00 | 50 | 1016.2 |
| 20260501184244 | 51 | 23 | 1.0 | 3.0 | 0.00 | 0.01 | 0.00 | 52 | 1016.1 |
| 20260501183344 | 51 | 313 | 1.0 | 5.0 | 0.00 | 0.01 | 0.00 | 52 | 1016.2 |
| 20260501182444 | 51 | 309 | 1.0 | 5.0 | 0.00 | 0.01 | 0.00 | 52 | 1016.1 |
| 20260501181544 | 51 | 330 | 1.0 | 6.0 | 0.00 | 0.01 | 0.00 | 53 | 1016.0 |
| 20260501180644 | 50 | 330 | 2.0 | 5.0 | 0.00 | 0.01 | 0.00 | 51 | 1016.0 |
| 20260501175744 | 50 | 312 | 1.0 | 7.0 | 0.00 | 0.01 | 0.00 | 55 | 1016.0 |
| 20260501174844 | 49 | 319 | 2.0 | 8.0 | 0.00 | 0.01 | 0.00 | 53 | 1016.0 |
| 20260501173043 | 49 | 295 | 2.0 | 7.0 | 0.00 | 0.01 | 0.00 | 51 | 1016.0 |
| 20260501172144 | 49 | 319 | 1.0 | 4.0 | 0.00 | 0.01 | 0.00 | 56 | 1015.9 |
| 20260501171244 | 49 | 295 | 1.0 | 4.0 | 0.00 | 0.01 | 0.00 | 55 | 1015.9 |